Location: Kumla
(59.1265°N, 15.1401°E)
Time: 16:12:14
(UTC+01:00)

A-11 Canister half - Pass Details

Date: 05 December 2023
Orbit: 1512 x 1687 km, 47.2° (Epoch: 25 February)

Event Time Altitude Azimuth Distance (km) Brightness Sun altitude
Rises 07:04:52 0° 280° (W) 4,881 - -10.0°
Exits shadow 07:07:31 - 271° (W) 4,278 10.8 -9.7°
Reaches altitude 10° 07:09:24 10° 262° (W) 3,916 10.6 -9.5°
Maximum altitude 07:15:11 17° 226° (SW) 3,385 10.6 -8.8°
Drops below altitude 10° 07:21:01 10° 190° (S) 3,946 11.4 -8.2°
Sets 07:25:40 0° 173° (S) 4,933 12.3 -7.7°
